Regional Weather Roundup
Issued by NWS

Home | Current Version | Previous Version | Graphics & Text | Print | Product List | Glossary On
Versions: 1 2 3 4 5 6 7 8 9 10 11 12 13 14 15 16 17 18 19 20 21 22 23 24 25 26 27 28 29 30 31 32 33 34 35 36 37 38 39 40 41 42 43 44 45 46 47 48 49 50
000
ASUS45 KCYS 020410
RWRWY

WYOMING REGIONAL WEATHER ROUNDUP
NATIONAL WEATHER SERVICE CHEYENNE WY
1000 PM MDT SAT AUG 01 2015

NOTE:  "FAIR" INDICATES FEW OR NO CLOUDS BELOW 12,000 FEET
WITH NO SIGNIFICANT WEATHER AND/OR OBSTRUCTIONS TO VISIBILITY.

WYZ001-020500-
YELLOWSTONE NATIONAL PARK

CITY           SKY/WX    TMP DP  RH WIND       PRES   REMARKS
LK YELLOWSTONE   N/A     53  37  54 CALM      30.34R
W YELLOWSTONE  NOT AVBL

$$
WYZ002>013-054>058-071-098>099-020500-
NORTHERN WYOMING

CITY           SKY/WX    TMP DP  RH WIND       PRES   REMARKS
JACKSON        NOT AVBL
CODY           FAIR      75  36  23 W3        30.09R
GREYBULL       FAIR      79  28  15 NW6       29.95R
WORLAND        FAIR      72  24  16 SE7       29.99R
SHERIDAN       FAIR      65  40  39 SE3       29.98R
BUFFALO        FAIR      74  29  19 W9        30.08R
GILLETTE       FAIR      66  33  29 S6        30.01R
HULETT         FAIR      70  39  32 S7        30.00R
NEWCASTLE      FAIR      73  45  35 E10       30.02R

$$
WYZ014>020-022>026-101>103-020500-
CENTRAL WYOMING

CITY           SKY/WX    TMP DP  RH WIND       PRES   REMARKS
BIG PINEY      FAIR      62  33  33 NW10      30.25R
PINEDALE       FAIR      59  34  38 W5        30.26R
DUBOIS         FAIR      64  25  22 NW9       30.25R
LANDER         FAIR      75  34  22 W13       30.09R
RIVERTON       FAIR      76  26  15 NE7       30.10R
CASPER         FAIR      65  32  29 N9        30.09R
DOUGLAS        FAIR      70  35  27 E5        30.07R

$$
WYZ021-027>030-104>119-020500-
SOUTHERN WYOMING

CITY           SKY/WX    TMP DP  RH WIND       PRES   REMARKS
EVANSTON       FAIR      69  28  21 N9        30.24R
KEMMERER       FAIR      64  30  27 NW13      30.26S
FORT BRIDGER   CLEAR     72  27  18 NW7       30.26R
ROCK SPRINGS   FAIR      71  26  18 S5        30.19R
DIXON          FAIR      66  38  35 NW6       30.21R
RAWLINS        FAIR      67  31  26 N8        30.20R
SARATOGA       FAIR      64  28  25 E12       30.21R
LARAMIE        FAIR      68  42  38 E5        30.24R
CHEYENNE       FAIR      70  53  54 SE13      30.17R
TORRINGTON     FAIR      70  57  63 SE10      30.03R
PINE BLUFFS    FAIR      68  52  56 SE15G25   30.12R

$$



USA.gov is the U.S. government's official web portal to all federal, state and local government web resources and services.